User: anonymous   Login
Location: Caltech
(34.1382°N, 118.1253°W)
Time: 17:21:53
(UTC-07:00)
Language:

Cosmos 1758 Rocket - Orbit

View from above orbital plane
View from above orbital plane
View from above satellite
View from above satellite

Ground track
Ground track

The orbit data is extracted from the following two-line orbital elements,

1 16792U 86046B   16147.18461869  .00000120  00000-0  11629-4 0  9997
2 16792  82.4838 206.5300 0025613 125.3571 256.7654 14.83067593617529
Epoch (UTC): 26 May 2016 04:25:51
Eccentricity: 0.0025613
inclination: 82.4838°
perigee height: 602 km
apogee height: 637 km
right ascension of ascending node: 206.5300°
argument of perigee: 125.3571°
revolutions per day: 14.83067593
mean anomaly at epoch: 256.7654°
orbit number at epoch: 61752

The dashed part of the orbit path shows where the satellite is in the earth's shadow,  

DLR